Weiss Lake Weather Center

Moon Phase Calendar



Weiss Lake Water Level
Online Cameras

 


      

Current Conditions in Cedar Bluff
3/6/2021 5:24:44 PM

52°F
Feels Like 46
Clouds
Humidity
38%
Pressure
29.38"
Wind
3.7 mph (ENE)
Dew Point
28°F
UV Index
0/10 (Low)
Visibility
6 mi

Hourly Forecast

Date & Time Sat, Mar 6
5:00 PM
Sat, Mar 6
6:00 PM
Sat, Mar 6
7:00 PM
Sat, Mar 6
8:00 PM
Sat, Mar 6
9:00 PM
Sat, Mar 6
10:00 PM
Sat, Mar 6
11:00 PM
Sun, Mar 7
12:00 AM
Sun, Mar 7
1:00 AM
Sun, Mar 7
2:00 AM
Sun, Mar 7
3:00 AM
Sun, Mar 7
4:00 AM
Sun, Mar 7
5:00 AM
Sun, Mar 7
6:00 AM
Sun, Mar 7
7:00 AM
Sun, Mar 7
8:00 AM
Sun, Mar 7
9:00 AM
Sun, Mar 7
10:00 AM
Sun, Mar 7
11:00 AM
Sun, Mar 7
12:00 PM
Sun, Mar 7
1:00 PM
Sun, Mar 7
2:00 PM
Sun, Mar 7
3:00 PM
Sun, Mar 7
4:00 PM
Sun, Mar 7
5:00 PM
Sun, Mar 7
6:00 PM
Sun, Mar 7
7:00 PM
Sun, Mar 7
8:00 PM
Sun, Mar 7
9:00 PM
Sun, Mar 7
10:00 PM
Sun, Mar 7
11:00 PM
Mon, Mar 8
12:00 AM
Mon, Mar 8
1:00 AM
Mon, Mar 8
2:00 AM
Mon, Mar 8
3:00 AM
Mon, Mar 8
4:00 AM
Mon, Mar 8
5:00 AM
Mon, Mar 8
6:00 AM
Mon, Mar 8
7:00 AM
Mon, Mar 8
8:00 AM
Mon, Mar 8
9:00 AM
Mon, Mar 8
10:00 AM
Mon, Mar 8
11:00 AM
Mon, Mar 8
12:00 PM
Mon, Mar 8
1:00 PM
Mon, Mar 8
2:00 PM
Mon, Mar 8
3:00 PM
Mon, Mar 8
4:00 PM
Condition
Clouds

Clouds

Clear

Clear

Clear

Clear

Clear

Clear

Clear

Clear

Clear

Clear

Clear

Clear

Clear

Clear

Clear

Clear

Clear

Clear

Clear

Clear

Clear

Clear

Clear

Clear

Clear

Clear

Clear

Clear

Clear

Clear

Clear

Clear

Clear

Clear

Clear

Clear

Clear

Clear

Clear

Clear

Clear

Clear

Clear

Clear

Clear

Clear
Temperature 52°F48°F44°F42°F40°F38°F37°F36°F35°F34°F34°F33°F33°F32°F36°F42°F47°F50°F54°F56°F58°F60°F60°F58°F54°F48°F45°F43°F42°F41°F40°F40°F39°F38°F38°F37°F37°F36°F40°F46°F52°F57°F62°F65°F64°F64°F63°F62°F
Feels Like 45°F42°F37°F34°F32°F31°F30°F29°F28°F27°F26°F26°F26°F26°F29°F34°F38°F42°F46°F49°F51°F53°F53°F51°F49°F42°F39°F38°F37°F36°F35°F35°F34°F34°F33°F32°F31°F31°F35°F41°F47°F53°F59°F62°F60°F59°F58°F58°F
Cloudiness 23%21%5%1%0%0%0%0%0%0%0%0%0%0%0%0%0%0%0%0%0%0%0%0%0%0%0%0%0%0%0%0%0%0%0%0%0%0%0%0%0%0%0%0%0%0%0%0%
Visibility 6 mi6 mi6 mi6 mi6 mi6 mi6 mi6 mi6 mi6 mi6 mi6 mi6 mi6 mi6 mi6 mi6 mi6 mi6 mi6 mi6 mi6 mi6 mi6 mi6 mi6 mi6 mi6 mi6 mi6 mi6 mi6 mi6 mi6 mi6 mi6 mi6 mi6 mi6 mi6 mi6 mi6 mi6 mi6 mi6 mi6 mi6 mi6 mi
Precipitation 0%0%0%0%0%0%0%0%0%0%0%0%0%0%0%0%0%0%0%0%0%0%0%0%0%0%0%0%0%0%0%0%0%0%0%0%0%0%0%0%0%0%0%0%0%0%0%0%
Humidity 38%49%60%66%70%72%75%78%81%83%85%85%87%89%78%62%52%46%42%39%37%35%37%42%56%65%69%71%73%74%75%76%77%78%79%81%82%84%76%63%54%46%40%37%35%34%35%40%
Dew Point 28°F30°F32°F31°F31°F26°F25°F24°F23°F23°F22°F22°F21°F21°F22°F24°F26°F28°F30°F31°F32°F32°F34°F36°F39°F37°F36°F35°F34°F34°F33°F33°F32°F32°F32°F32°F31°F31°F33°F34°F36°F37°F38°F38°F37°F36°F36°F38°F
Pressure 29.38"29.8"30.09"30.24"30.3"30.33"30.33"30.36"30.36"30.36"30.36"30.42"30.42"30.45"30.45"30.45"30.45"30.45"30.45"30.42"30.39"30.39"30.39"30.39"30.42"30.45"30.47"30.5"30.5"30.5"30.5"30.5"30.5"30.5"30.5"30.53"30.53"30.56"30.59"30.59"30.56"30.56"30.56"30.53"30.5"30.47"30.47"30.47"
Wind Speed 5.1 mph5.2 mph6 mph6.9 mph6.7 mph6.1 mph6.2 mph6.2 mph5.8 mph5.9 mph5.8 mph5.8 mph4.8 mph3.9 mph4.5 mph7.4 mph8.2 mph8.2 mph7.2 mph6.5 mph6 mph5.6 mph6 mph6.9 mph5.3 mph5 mph4.8 mph4.2 mph3.5 mph2.8 mph2.4 mph1.9 mph1.6 mph1.2 mph1.9 mph2.1 mph2.8 mph2.8 mph3 mph3.2 mph3 mph2.3 mph1.1 mph1 mph3 mph3.8 mph4 mph3.5 mph
Wind
Direction
22°
NNE

N
355°
N

N

N

N

N

N

N

N
10°
N
14°
NNE
16°
NNE

N
18°
NNE
29°
NNE
41°
NE
43°
NE
35°
NE
25°
NNE
16°
NNE
352°
N
346°
NNW
347°
NNW
338°
NNW
336°
NNW
340°
NNW
343°
NNW
352°
N
353°
N
351°
N
354°
N
340°
NNW
356°
N
23°
NNE
24°
NNE
19°
NNE
19°
NNE
37°
NE
56°
NE
54°
NE
50°
NE
36°
NE
218°
SW
230°
SW
236°
SW
239°
WSW
232°
SW

Daily Forecast

Date High Low Precip. Humidity
Today
Mar 6

Clouds
53 °F
37 °F
5%
52%
Sunday
Mar 7

Clear
59 °F
33 °F
0%
42%
Monday
Mar 8

Clear
64 °F
33 °F
0%
32%
Tuesday
Mar 9

Clouds
64 °F
41 °F
0%
40%
Wednesday
Mar 10

Clear
68 °F
41 °F
0%
43%
Thursday
Mar 11

Clouds
71 °F
48 °F
0%
52%
Friday
Mar 12

Clouds
75 °F
50 °F
0%
53%
Saturday
Mar 13

Rain
76 °F
54 °F
24%
51%
Sunday
Mar 14

Rain
62 °F
50 °F
100%
91%
Monday
Mar 15

Clouds
62 °F
41 °F
0%
43%
Tuesday
Mar 16

Clouds
62 °F
48 °F
0%
42%
Wednesday
Mar 17

Clouds
65 °F
43 °F
0%
46%
Thursday
Mar 18

Clouds
65 °F
43 °F
5%
49%
Friday
Mar 19

Rain
51 °F
48 °F
100%
90%
Saturday
Mar 20

Rain
65 °F
50 °F
20%
79%
Sunday
Mar 21

Rain
59 °F
45 °F
100%
61%


Temperature 8-14 Day Outlook



Precipitation 8-14 Day Outlook




Quick Links
Weiss Lake News
Weiss Lake Photos
Weiss Lake Videos




About Us
Contact Us
Site Map
Search Site
Advertise With Us
   
www.LakeWeiss.info
THE WEISS LAKE WEBSITE

Copyright 2021, Lakes Online
Privacy    |    Legal